Plainview, TX

9:33 PM CDT on April 25, 2017 (GMT -0500)
Hale County

Weather History for KPVW - September, 2013

Change the Weather History Date:

Friday, September 6, 2013

  Actual Average Record
Temperature  
Mean Temperature 78 °F -  
Max Temperature 95 °F 86 °F 99 °F (1911)
Min Temperature 62 °F 62 °F 47 °F (1953)
Cooling Degree Days 13    
Growing Degree Days 28 (Base 50)    
Moisture  
Dew Point 55 °F    
Average Humidity 48    
Maximum Humidity 75    
Minimum Humidity 24    
Precipitation  
Precipitation 0.00 in - - ()
Sea Level Pressure  
Sea Level Pressure 30.15 in    
Wind  
Wind Speed 5 mph (SSW)    
Max Wind Speed 13 mph    
Max Gust Speed 18 mph    
Visibility 10 miles    
Events      
Averages and records for this station are not official NWS values.
T = Trace of Precipitation, MM = Missing Value Source: NWS Daily Summary

Daily Weather History Graph

Daily Weather History Graph

Search for Another Location

Airport or City:

Trip Planner

Search our weather history database for the weather conditions in past years. The results will help you decide how hot, cold, wet, or windy it might be!

Date:

Astronomy

Sep. 06, 2013 Rise Set
Actual Time 7:24 AM CDT 8:05 PM CDT
Civil Twilight 6:58 AM CDT 8:30 PM CDT
Nautical Twilight 6:28 AM CDT 9:00 PM CDT
Astronomical Twilight 5:58 AM CDT 9:31 PM CDT
Moon 8:32 AM CDT (9/6) 8:38 PM CDT (9/6)
Length of Visible Light 13h 32m
Length of Day
12h 41m
New Moon, 2% of the Moon is Illuminated
Sep 6
New Moon
Sep 12
First Quarter
Sep 19
Full
Sep 26
Last Quarter
Oct 4
New

Hourly Weather History & Observations

Time (CDT) Temp. Heat Index Dew Point Humidity Pressure Visibility Wind Dir Wind Speed Gust Speed Precip Events Conditions
12:15 AM 70.0 °F - 49.6 °F 48% 30.18 in 10.0 mi Calm Calm - N/A   Clear
12:35 AM 70.0 °F - 49.1 °F 47% 30.18 in 10.0 mi SSE 4.6 mph - N/A   Clear
12:55 AM 70.0 °F - 50.2 °F 49% 30.18 in 10.0 mi SSE 5.8 mph - N/A   Clear
1:15 AM 70.0 °F - 51.3 °F 51% 30.18 in 10.0 mi South 4.6 mph - N/A   Clear
1:35 AM 67.5 °F - 51.1 °F 56% 30.18 in 10.0 mi South 5.8 mph - N/A   Clear
1:55 AM 70.0 °F - 53.8 °F 56% 30.18 in 10.0 mi South 8.1 mph - N/A   Clear
2:15 AM 70.0 °F - 54.7 °F 58% 30.18 in 10.0 mi SSW 8.1 mph - N/A   Clear
2:35 AM 70.0 °F - 55.4 °F 60% 30.17 in 10.0 mi SSW 6.9 mph - N/A   Clear
2:55 AM 70.0 °F - 55.8 °F 61% 30.17 in 10.0 mi SW 5.8 mph - N/A   Clear
3:15 AM 70.0 °F - 55.8 °F 61% 30.17 in 10.0 mi SSW 5.8 mph - N/A   Clear
3:35 AM 70.0 °F - 56.3 °F 62% 30.17 in 10.0 mi SSW 3.5 mph - N/A   Clear
3:55 AM 70.0 °F - 56.5 °F 62% 30.17 in 10.0 mi SW 3.5 mph - N/A   Clear
4:15 AM 68.4 °F - 56.5 °F 66% 30.17 in 10.0 mi SW 3.5 mph - N/A   Clear
4:35 AM 67.5 °F - 56.5 °F 68% 30.17 in 10.0 mi SW 3.5 mph - N/A   Clear
4:55 AM 67.5 °F - 55.9 °F 66% 30.17 in 10.0 mi Calm Calm - N/A   Clear
5:15 AM 67.5 °F - 56.3 °F 67% 30.17 in 10.0 mi Calm Calm - N/A   Clear
5:35 AM 66.0 °F - 55.2 °F 68% 30.17 in 10.0 mi WSW 3.5 mph - N/A   Clear
5:55 AM 64.4 °F - 54.0 °F 69% 30.17 in 10.0 mi Calm Calm - N/A   Clear
6:15 AM 63.7 °F - 53.8 °F 70% 30.17 in 10.0 mi Calm Calm - N/A   Clear
6:35 AM 63.1 °F - 53.6 °F 71% 30.18 in 10.0 mi Calm Calm - N/A   Clear
6:55 AM 62.6 °F - 54.0 °F 73% 30.18 in 10.0 mi West 3.5 mph - N/A   Clear
7:15 AM 62.6 °F - 54.0 °F 73% 30.18 in 10.0 mi West 4.6 mph - N/A   Clear
7:35 AM 62.8 °F - 54.7 °F 75% 30.18 in 10.0 mi West 3.5 mph - N/A   Clear
7:55 AM 63.0 °F - 54.5 °F 74% 30.19 in 10.0 mi West 3.5 mph - N/A   Clear
8:15 AM 64.2 °F - 55.2 °F 73% 30.20 in 10.0 mi Calm Calm - N/A   Clear
8:35 AM 70.0 °F - 59.0 °F 68% 30.20 in 10.0 mi WSW 3.5 mph - N/A   Clear
8:55 AM 71.6 °F - 58.5 °F 63% 30.20 in 10.0 mi WSW 3.5 mph - N/A   Clear
9:15 AM 75.2 °F - 59.7 °F 58% 30.21 in 10.0 mi WSW 6.9 mph - N/A   Clear
9:35 AM 77.5 °F - 60.4 °F 55% 30.21 in 10.0 mi WSW 6.9 mph - N/A   Clear
9:55 AM 78.6 °F - 59.9 °F 52% 30.21 in 10.0 mi WSW 9.2 mph - N/A   Clear
10:15 AM 80.2 °F 80.9 °F 59.7 °F 49% 30.21 in 10.0 mi West 11.5 mph - N/A   Clear
10:35 AM 81.5 °F 81.8 °F 59.2 °F 47% 30.22 in 10.0 mi WSW 10.4 mph - N/A   Clear
10:55 AM 82.6 °F 82.6 °F 59.4 °F 45% 30.22 in 10.0 mi West 9.2 mph - N/A   Clear
11:15 AM 82.9 °F 82.8 °F 59.0 °F 44% 30.22 in 10.0 mi West 8.1 mph - N/A   Clear
11:35 AM 84.7 °F 84.0 °F 58.1 °F 40% 30.21 in 10.0 mi WSW 5.8 mph - N/A   Clear
11:55 AM 88.9 °F 87.7 °F 58.3 °F 35% 30.21 in 10.0 mi WSW 8.1 mph - N/A   Clear
12:15 PM 88.5 °F 87.5 °F 58.5 °F 36% 30.20 in 10.0 mi South 4.6 mph - N/A   Clear
12:35 PM 89.4 °F 88.7 °F 59.4 °F 36% 30.20 in 10.0 mi SSW 4.6 mph - N/A   Clear
12:55 PM 90.1 °F 89.1 °F 58.5 °F 34% 30.19 in 10.0 mi SSW 3.5 mph - N/A   Clear
1:15 PM 90.1 °F 88.8 °F 57.7 °F 33% 30.18 in 10.0 mi SW 6.9 mph - N/A   Clear
1:35 PM 90.1 °F 88.3 °F 55.8 °F 31% 30.18 in 10.0 mi SW 6.9 mph - N/A   Scattered Clouds
1:55 PM 90.1 °F 88.3 °F 56.1 °F 31% 30.17 in 10.0 mi SW 8.1 mph - N/A   Clear
2:15 PM 90.1 °F 88.6 °F 56.5 °F 32% 30.16 in 10.0 mi SW 3.5 mph - N/A   Mostly Cloudy
2:35 PM 92.5 °F 90.4 °F 55.0 °F 28% 30.15 in 10.0 mi South 3.5 mph - N/A   Mostly Cloudy
2:55 PM 92.3 °F 89.9 °F 54.1 °F 27% 30.15 in 10.0 mi SW 6.9 mph - N/A   Scattered Clouds
3:15 PM 94.8 °F 92.8 °F 54.9 °F 26% 30.13 in 10.0 mi South 8.1 mph - N/A   Scattered Clouds
3:35 PM 91.0 °F - 52.7 °F 27% 30.13 in 10.0 mi SSE 8.1 mph - N/A   Scattered Clouds
3:55 PM 94.6 °F 92.6 °F 54.7 °F 26% 30.12 in 10.0 mi SSE 9.2 mph - N/A   Mostly Cloudy
4:15 PM 92.1 °F 89.5 °F 53.1 °F 26% 30.11 in 10.0 mi SSW 9.2 mph 18.4 mph N/A   Scattered Clouds
4:35 PM 93.2 °F - 52.7 °F 25% 30.11 in 10.0 mi South 6.9 mph - N/A   Clear
4:55 PM 92.7 °F - 52.0 °F 25% 30.10 in 10.0 mi South 12.7 mph - N/A   Clear
5:15 PM 92.3 °F - 51.6 °F 25% 30.10 in 10.0 mi SSW 8.1 mph - N/A   Clear
5:35 PM 91.8 °F - 50.5 °F 24% 30.09 in 10.0 mi SSW 6.9 mph - N/A   Clear
5:55 PM 91.0 °F - 51.6 °F 26% 30.09 in 10.0 mi SSE 4.6 mph - N/A   Clear
6:15 PM 90.1 °F - 51.4 °F 27% 30.09 in 10.0 mi South 5.8 mph - N/A   Clear
6:35 PM 90.1 °F - 52.5 °F 28% 30.09 in 10.0 mi SSE 5.8 mph - N/A   Clear
6:55 PM 90.1 °F - 52.2 °F 27% 30.09 in 10.0 mi South 6.9 mph - N/A   Clear
7:15 PM 90.1 °F 87.7 °F 53.2 °F 28% 30.09 in 10.0 mi South 6.9 mph - N/A   Clear
7:35 PM 84.9 °F - 51.8 °F 32% 30.09 in 10.0 mi South 5.8 mph - N/A   Clear
7:55 PM 82.2 °F - 52.9 °F 36% 30.08 in 10.0 mi South 5.8 mph - N/A   Clear
8:15 PM 80.1 °F - 52.5 °F 38% 30.08 in 10.0 mi South 5.8 mph - N/A   Clear
8:35 PM 77.5 °F - 55.6 °F 47% 30.09 in 10.0 mi South 4.6 mph - N/A   Clear
8:55 PM 76.8 °F - 54.7 °F 46% 30.09 in 10.0 mi South 4.6 mph - N/A   Clear
9:15 PM 75.2 °F - 54.3 °F 48% 30.09 in 10.0 mi South 4.6 mph - N/A   Clear
9:35 PM 75.2 °F - 55.6 °F 50% 30.09 in 10.0 mi South 4.6 mph - N/A   Clear
9:55 PM 75.2 °F - 56.5 °F 52% 30.10 in 10.0 mi South 3.5 mph - N/A   Clear
10:15 PM 75.2 °F - 55.9 °F 51% 30.10 in 10.0 mi South 3.5 mph - N/A   Clear
10:35 PM 73.4 °F - 55.6 °F 54% 30.10 in 10.0 mi SSE 4.6 mph - N/A   Clear
10:55 PM 72.5 °F - 55.4 °F 55% 30.11 in 10.0 mi South 3.5 mph - N/A   Clear
11:15 PM 70.2 °F - 55.2 °F 59% 30.11 in 10.0 mi SSE 5.8 mph - N/A   Clear
11:35 PM 70.3 °F - 55.0 °F 58% 30.11 in 10.0 mi South 3.5 mph - N/A   Clear
11:55 PM 70.0 °F - 55.9 °F 61% 30.11 in 10.0 mi South 5.8 mph - N/A   Clear